Погода в Тайпаке

Погода в Тайпаке : погода сейчас, прогноз погоды и архив. Всё, что Вы хотите узнать о погоде в Тайпаке!

Хотите узнать прогноз погоды в Тайпаке? Тогда Вам сюда: Погода в Тайпаке

Поиск расширенной информации на нашем сайте:

Другие новости

Новости СМИ2

Главная страница сайта

Новости сайта

03.07.2017

Напоминаем, что на нашем специализированном сайте Метеоцентр.Азия вы можете получить высокодетализированные автоматические прогнозы погоды по пунктам России, СНГ и мира в авиационном формате (включающие направление и скорость ветра, видимость, явления погоды, количество и форму облачности, нижнюю и верхнюю границу облачности).


Погода в Тайпаке - сегодня

Время (UTC), дата Ветер
(°,м/с) 
Видим.   Явления Облачность Т
(°С)
Тd
(°С)
f(%) Тe
(°С)
Pmin
(гПа)
dP
(гПа)
Po
(мм)
O2
(г/м3)
Тmin Tmax R s Состояние
почвы
06 15.08.17 120 (ЮВ) 10 км    ясно 
+25.3 +8.9 35 +25  1017.6  0.6  763  280  +16.9         
09 15.08.17 040 (СВ) 10 км    ясно 
+27.4 +7.1 28 +27  1017.3  -0.3  763  278           
12 15.08.17 090 (В) 10 км    3/3 1000 м 
[Cu med, cong]
+29.2 +8.8 28 +29  1016.7  -0.6  762  276           
15 15.08.17 120 (ЮВ) 10 км    ясно 
+29 +6.7 24 +29  1016.7  762  277    +30.6       
18 15.08.17 тихо ()   н/о    ясно 
+22.2 +5.8 34 +22  1017.8  1.1  763  284    +30.6       
21 15.08.17 050 (СВ) н/о    ясно 
+20 +6.9 43 +20  1017.8  763  285           
00 16.08.17 080 (В) н/о    ясно 
+20.4 +9 48 +20  1018.1  0.3  763  285           
03 16.08.17 130 (ЮВ) 10 км    ясно 
+17.3 +4.1 41 +19  1019.2  1.1  764  289           
06 16.08.17 160 (Ю) 10 км    ясно 
+28.8 +4.5 21 +29  1020.2  765  278  +16.7         
09 16.08.17 120 (ЮВ) 10 км    8/0 верхняя 
[Ci fib]
+32 +2.2 15 +32  1019.7  0.5  765  275           
12 16.08.17 120 (ЮВ) 10 км    6/6 1000 м 
[Cu med, cong]
+33.3 +1.8 14 +33  1019.3  -0.4  764  274           
15 16.08.17 130 (ЮВ) 10 км    4/4 1000 м 
[Cu med, cong]
+31.3 +3 17 +31  1019.3  764  276    +34.6       
18 16.08.17 тихо ()   н/о    6/0 верхняя 
[Ci fib]
+25.5 +8.2 33 +26  1019.8  0.5  765  280    +34.6       
21 16.08.17 тихо ()   н/о    6/0 верхняя 
[Ci fib]
+23.7 +4.3 28 +24  1019.9  0.1  765  283           
00 17.08.17 тихо ()   н/о    8/0 средняя 
[Ac trans]
+21 +3.8 32 +21  1020.3  0.4  765  286           
03 17.08.17 тихо ()   10 км    8/0 средняя 
[Ac trans]
+19.8 +4.3 36 +20  1020.9  0.6  766  287  +19.2        сухая 
06 17.08.17 тихо ()   10 км    9/0 средняя 
[Ac trans]
+29.1 +7 25 +29  1021.4  0.5  766  278  +19.2         
09 17.08.17 тихо ()   10 км    10/0 средняя 
[Ac As]
+33.3 +6.2 19 +33  1021  -0.4  766  274           
12 17.08.17 тихо ()   10 км    10/0 средняя 
[Ac As]
+33.5 +5.6 18 +34  1020.1  -0.9  765  274           
15 17.08.17 тихо ()   10 км    8/0 средняя 
[Ac trans]
+32.3 +8.6 23 +32  1019.6  -0.5  765  274    +35.4       
18 17.08.17 тихо ()   н/о    6/0 средняя 
[Ac trans]
+25.1 +6.5 30 +25  1020.1  0.5  765  281    +35.4       
21 17.08.17 050 (СВ) н/о    4/0 средняя 
[Ac trans]
+23.9 +7.1 34 +24  1019.7  -0.4  765  282           
00 18.08.17 тихо ()   н/о    8/8 600 м кучево-дожд. 
[Cb calv]
+22.1 +6.5 36 +22  1019.4  -0.3  764  284           
03 18.08.17 тихо ()   10 км    8/8 600 м кучево-дожд. 
[Cb calv]
+22.3 +8.4 41 +22  1019.9  0.5  765  284           
06 18.08.17 010 (С) 10 км    8/0 средняя 
[Ac trans]
+28.9 +8.4 28 +29  1020.3  0.4  765  277  +21.5         
Время (UTC), дата Ветер
(°,м/с) 
Видим.   Явления Облачность Т
(°С)
Тd
(°С)
f(%) Тe
(°С)
Pmin
(гПа)
dP
(гПа)
Po
(мм)
O2
(г/м3)
Тmin Tmax R s Состояние
почвы

Для получения пояснительной информации подведите курсор к названию столбца.

ПОГОДА в Тайпаке - архив

Всё, что Вы хотите узнать о погоде в Тайпаке - удобно и подробно!

Выберите нужную дату (начиная с 1 января 2015* года) и нажмите кнопку "Найти".
Будут отображены архивные сводки погоды по пункту Тайпак, начиная с указанной даты.


Отображать данные в формате CSV (для использования в таблицах Excel)


Внимание! Наш архив погоды предназначен исключительно для личного некоммерческого использования в познавательных целях. Если Вам необходимы официальные справки о состоянии погоды (для производственных, юридических, коммерческих и т.п. целей), обращайтесь в органы Росгидромета.

*Примечание: данная дата относится к архиву по метеостанциям СССР (Россия, СНГ, Балтия).
Архив по метеостанциям Зарубежной Европы и Азии (кроме Китая) хранится 10 дней, по другим регионам земного шара (Китай, Африка, Америка, Австралия, Океания) - 1 день.

Тайпак - район местоположения метеостанции


Название, широта, долгота, высота метеостанции:
Тайпак (Калмыково) 49.1°ш. 51.9°д. 2 м над ур. моря [Казахстан]

Дополнительная информация

В oтличие oт бoльшинства пoгoдных сайтoв мы публикуем пoдрoбную метеoинфoрмацию в детальнoм прoфессиoнальнoм фoрмате.

Характеристики температуры и влажнoсти вoздуха измеряются на высoте 2 м в тени вдали oт зданий и деревьев.
Скoрoсть ветра измеряется на высoте 10 м (на урoвне рoста челoвека скoрoсть ветра ниже в 1.5-2 раза). Если метеoстанция нахoдится в гoрoде или в лесу, тo скoрoсть ветра занижена на 2-4 м/с пo сравнению с oткрытым местoм. Скoрoсть ветра над акватoриями крупных рек и oзёр, а также на вершинах хoлмoв на 2-5 м/с выше, чем в oбычных услoвиях.
Атмoсфернoе давление в разных тoчках местнoсти мoжет значительнo oтличаться oт давления на метеoстанции, в зависимoсти oт услoвий рельефа (при пoдъёме на 10 м давление пoнижается примернo на 1 мм рт.ст.).